Location: Unspecified
(36.5600°N, 136.6600°E)
Time: 04:29:22
(UTC+09:00)

BlueWalker 3 - Pass Details

Date: 17 June 2024
Orbit: 480 x 491 km, 53.2° (Epoch: 24 July)

Event Time Altitude Azimuth Distance (km) Brightness Sun altitude
Rises 20:04:21 0° 193° (SSW) 2,528 5.2 -9.2°
Reaches altitude 10° 20:06:53 10° 176° (S) 1,651 4.2 -9.6°
Maximum altitude 20:09:41 20° 127° (SE) 1,150 3.1 -10.0°
Drops below altitude 10° 20:12:30 10° 78° (ENE) 1,654 4.2 -10.4°
Sets 20:15:02 0° 61° (ENE) 2,535 5.3 -10.8°
